Location: Gleizolles
(44.4833°N, 6.7667°E)
Time: 06:53:59
(UTC+00:00)

Envisat - Visible Passes

Search period start: 30 November 2022 00:00
Search period end: 10 December 2022 00:00
Orbit: 763 x 765 km, 98.2° (Epoch: 29 November)

Date Brightness Start Highest point End Pass type
(mag) Time Alt. Az. Time Alt. Az. Time Alt. Az.
30 Nov 5.8 02:55:32 10° NE 02:55:53 12° NE 02:55:53 12° NE visible
30 Nov 4.5 04:34:09 10° N 04:36:03 22° NNW 04:36:03 22° NNW visible
01 Dec 4.9 03:56:55 10° NNE 03:58:26 20° NNE 03:58:26 20° NNE visible
01 Dec 4.9 05:38:03 10° NNW 05:38:37 11° NW 05:38:37 11° NW visible
02 Dec 5.5 03:20:07 10° NNE 03:20:50 14° NNE 03:20:50 14° NNE visible
02 Dec 4.7 04:59:37 10° N 05:01:00 16° NNW 05:01:00 16° NNW visible
03 Dec 4.8 04:22:05 10° N 04:23:24 18° N 04:23:24 18° N visible
04 Dec 5.3 03:44:58 10° NNE 03:45:48 15° NNE 03:45:48 15° NNE visible
04 Dec 5.0 05:25:28 10° NNW 05:25:58 12° NNW 05:25:58 12° NNW visible
05 Dec 4.9 04:47:26 10° N 04:48:23 15° NNW 04:48:23 15° NNW visible
06 Dec 5.2 04:10:03 10° N 04:10:48 14° N 04:10:48 14° N visible
07 Dec 5.6 03:33:04 10° NNE 03:33:13 11° NNE 03:33:13 11° NNE visible
07 Dec 5.1 05:13:04 10° NNW 05:13:24 11° NNW 05:13:24 11° NNW visible
07 Dec 6.2 16:32:18 10° WSW 16:33:49 11° W 16:35:21 10° WNW visible
08 Dec 5.2 04:35:18 10° N 04:35:50 13° N 04:35:50 13° N visible
09 Dec 5.5 03:58:03 10° NNE 03:58:16 11° NNE 03:58:16 11° NNE visible
